STARLINK-30302

decayed
NORAD ID: 57664 Int'l Des: 2023-124 Owner: SPXS Country: US Constellation: starlink
LEOCIRCULAR
Gruppe

Über STARLINK-30302

Beschreibung wird geladen...

Höhenverlauf

Altitude vs Time

uPlot chart will show altitude changes over time

Zweizeiliger Elementsatz

1 57664U 23124B 25058.48334441 .48279878 12340-4 54315-2 0 9998
2 57664 53.1263 134.3133 0005828 4.3208 95.5283 16.36224406 86323
Epoch: 27. Feb. 2025 • Age: 4863 hours

Aktueller Status

Position data unavailable
Startdatum 22. Aug. 2023
Alter 2 years
Verglühungsdatum 27. Feb. 2025
Typ internet

Technische Details

Klassifizierung Payload
Masse 730.00 kg
Trockenmasse 700.00 kg
Gesamtmasse 730.00 kg
Länge 0.30 m
Durchmesser 4.10 m
Spannweite 29.00 m
Form Box + pan
Hersteller SPXS
Bus-Typ Starlink V2M
Phasenstatus Unknown Transfer Status
Besitzer/Staat SPXS/US

Große Konstellationen

Loading constellations...